Location: Star Hoppers Observatory
(42.7905°N, 83.6127°W)
Time: 23:49:31
(UTC-04:00)

NOSS 3-1 (A) - Visible Passes

Search period start: 16 April 2014 00:00
Search period end: 26 April 2014 00:00
Orbit: 905 x 1308 km, 63.4° (Epoch: 05 April)

Date Brightness Start Highest point End Pass type
(mag) Time Alt. Az. Time Alt. Az. Time Alt. Az.
16 Apr 6.5 01:20:52 10° NNW 01:24:15 14° N 01:27:47 10° NE visible
16 Apr 5.8 03:11:58 10° NNW 03:18:00 27° NNE 03:24:24 10° E visible
16 Apr 4.0 05:02:29 10° NW 05:10:00 85° NE 05:18:03 10° SE visible
16 Apr 3.7 20:46:36 10° SW 20:52:45 82° NW 20:59:28 10° NE visible
16 Apr 5.9 22:39:48 10° W 22:44:47 23° NNW 22:50:08 10° NNE visible
17 Apr 6.5 00:35:28 10° NNW 00:38:38 13° N 00:41:57 10° NNE visible
17 Apr 6.1 02:27:26 10° NNW 02:32:42 21° NNE 02:38:16 10° ENE visible
17 Apr 4.5 04:17:52 10° NNW 04:25:12 61° NE 04:33:06 10° SE visible
17 Apr 4.5 06:09:16 10° NW 06:15:59 35° WSW 06:23:03 10° S visible
17 Apr 5.5 21:54:05 10° W 21:59:35 31° NW 22:05:34 10° NNE visible
17 Apr 6.4 23:49:37 10° NW 23:53:03 14° N 23:56:37 10° NNE visible
18 Apr 6.3 01:42:48 10° NNW 01:47:16 17° NNE 01:51:57 10° ENE visible
18 Apr 5.0 03:33:19 10° NNW 03:40:17 43° NE 03:47:46 10° ESE visible
18 Apr 4.1 05:24:14 10° NW 05:31:31 53° WSW 05:39:15 10° SSE visible
18 Apr 4.9 21:08:40 10° WSW 21:14:33 43° NW 21:21:00 10° NNE visible
18 Apr 6.3 23:03:32 10° NW 23:07:31 16° NNW 23:11:42 10° NNE visible
19 Apr 6.4 00:58:00 10° NNW 01:01:44 15° NNE 01:05:37 10° NE visible
19 Apr 5.5 02:48:47 10° NNW 02:55:13 32° NE 03:02:06 10° E visible
19 Apr 3.9 04:39:25 10° NW 04:46:55 78° WSW 04:54:57 10° SSE visible
19 Apr 6.1 22:17:29 10° WNW 22:22:06 20° NNW 22:27:00 10° NNE visible
20 Apr 6.5 00:12:53 10° NNW 00:16:08 13° N 00:19:31 10° NNE visible
20 Apr 5.8 02:04:16 10° NNW 02:10:01 24° NNE 02:16:07 10° E visible
20 Apr 4.1 03:54:44 10° NNW 04:02:12 75° NE 04:10:14 10° SE visible
20 Apr 4.8 05:46:35 10° WNW 05:52:43 27° WSW 05:59:07 10° SSW visible
20 Apr 5.8 21:31:36 10° W 21:36:48 26° NNW 21:42:25 10° NNE visible
20 Apr 6.4 23:27:18 10° NNW 23:30:31 14° N 23:33:53 10° NNE visible
21 Apr 6.1 01:19:42 10° NNW 01:24:40 19° NNE 01:29:54 10° ENE visible
21 Apr 4.6 03:10:09 10° NNW 03:17:22 53° NE 03:25:07 10° ESE visible
21 Apr 4.3 05:01:20 10° NW 05:08:19 41° WSW 05:15:41 10° S visible
21 Apr 5.4 20:46:00 10° WSW 20:51:40 35° NW 20:57:51 10° NNE visible
21 Apr 6.3 22:41:20 10° NW 22:44:57 15° NNW 22:48:44 10° NNE visible
22 Apr 6.3 00:35:02 10° NNW 00:39:11 16° NNE 00:43:33 10° NE visible
22 Apr 5.1 02:25:37 10° NNW 02:32:24 38° NE 02:39:40 10° ESE visible
22 Apr 3.9 04:16:24 10° NW 04:23:48 62° WSW 04:31:41 10° SSE visible
22 Apr 5.5 06:11:07 10° W 06:13:35 12° WSW 06:16:05 10° WSW visible
22 Apr 6.2 21:55:14 10° WNW 21:59:27 17° NNW 22:03:55 10° NNE visible
22 Apr 6.3 23:50:07 10° NNW 23:53:38 14° N 23:57:16 10° NE visible
23 Apr 5.5 01:41:05 10° NNW 01:47:17 29° NE 01:53:52 10° E visible
23 Apr 3.9 03:31:38 10° NW 03:39:10 89° SW 03:47:13 10° SSE visible
23 Apr 5.1 05:24:08 10° WNW 05:29:24 20° WSW 05:34:51 10° SSW visible
23 Apr 6.0 21:09:14 10° WNW 21:14:05 22° NNW 21:19:16 10° NNE visible
23 Apr 6.3 23:04:50 10° NNW 23:08:01 13° N 23:11:19 10° NNE visible
24 Apr 5.9 00:56:33 10° NNW 01:02:01 22° NNE 01:07:47 10° ENE visible
24 Apr 4.2 02:47:00 10° NNW 02:54:24 66° NE 03:00:24 19° SE visible
24 Apr 4.6 04:38:33 10° NW 04:45:04 32° WSW 04:47:34 27° SW visible
24 Apr 6.3 22:19:05 10° NW 22:22:25 14° N 22:25:53 10° NNE visible
25 Apr 6.1 00:11:58 10° NNW 00:16:37 18° NNE 00:21:30 10° ENE visible
25 Apr 4.7 02:02:26 10° NNW 02:09:31 47° NE 02:14:35 21° ESE visible
25 Apr 4.1 03:53:27 10° NW 04:00:38 48° WSW 04:01:53 45° SW visible
25 Apr 6.2 21:33:02 10° NW 21:36:52 16° NNW 21:40:53 10° NNE visible
25 Apr 6.2 23:27:13 10° NNW 23:31:06 15° NNE 23:35:09 10° NE visible
